Weather History for Frederick, OK

Change the Weather History Date:

Friday, October 18, 2013

  Actual Average (KLTS) Record (KLTS)
Temperature  
Mean Temperature 49 °F -  
Max Temperature 57 °F 72 °F 89 °F (2005)
Min Temperature 39 °F 48 °F 37 °F (1996)
Degree Days  
Heating Degree Days 16    
Moisture  
Dew Point 47 °F    
Average Humidity 86    
Maximum Humidity 94    
Minimum Humidity 67    
Precipitation  
Precipitation 0.12 in - - ()
Sea Level Pressure  
Sea Level Pressure 29.99 in    
Wind  
Wind Speed 12 mph (East)    
Max Wind Speed 32 mph    
Max Gust Speed 39 mph    
Visibility 6 miles    
Events Rain , Thunderstorm    
Averages and records for this station are not official NWS values.
T = Trace of Precipitation, MM = Missing Value Source: NWS Daily Summary

Daily Weather History Graph

Daily Weather History Graph

Search for Another Location

Airport:

Trip Planner

Search our weather history database for the weather conditions in past years. The results will help you decide how hot, cold, wet, or windy it might be!

Date:

Astronomy

Oct. 18, 2013 Rise Set
Actual Time 7:43 AM CDT 6:57 PM CDT
Civil Twilight 7:18 AM CDT 7:22 PM CDT
Nautical Twilight 6:49 AM CDT 7:52 PM CDT
Astronomical Twilight 6:20 AM CDT 8:21 PM CDT
Moon 6:49 PM CDT (10/18) 7:21 AM CDT (10/18)
Length of Visible Light 12h 04m
Length of Day
11h 13m
Full, 100% of the Moon is Illuminated
Oct 18
Full
Oct 18
Full
Oct 26
Last Quarter
Nov 3
New
Nov 9
First Quarter

Hourly Weather History & Observations

Time (CDT) Temp. Windchill Dew Point Humidity Pressure Visibility Wind Dir Wind Speed Gust Speed Precip Events Conditions
12:53 AM 55.9 °F - 45.0 °F 67% 29.94 in 10.0 mi ESE 9.2 mph - N/A   Mostly Cloudy
1:53 AM 54.0 °F - 45.0 °F 72% 29.94 in 10.0 mi SE 8.1 mph - N/A   Partly Cloudy
2:53 AM 54.0 °F - 45.0 °F 72% 29.94 in 10.0 mi SE 10.4 mph - N/A   Scattered Clouds
3:53 AM 55.0 °F - 45.0 °F 69% 29.93 in 10.0 mi ESE 9.2 mph - N/A   Mostly Cloudy
4:53 AM 52.0 °F - 45.0 °F 77% 29.92 in 10.0 mi East 8.1 mph - N/A   Scattered Clouds
5:53 AM 53.1 °F - 46.0 °F 77% 29.90 in 10.0 mi East 9.2 mph - N/A   Mostly Cloudy
6:14 AM 55.4 °F - 46.4 °F 72% 29.92 in 10.0 mi ESE 11.5 mph - N/A Thunderstorm Thunderstorm
6:53 AM 54.0 °F - 48.9 °F 83% 29.89 in 10.0 mi East 12.7 mph - 0.00 in Rain Light Rain
7:06 AM 55.4 °F - 48.2 °F 77% 29.91 in 10.0 mi ESE 18.4 mph - 0.00 in Thunderstorm Overcast
7:39 AM 53.6 °F - 48.2 °F 82% 29.92 in 10.0 mi ESE 8.1 mph - 0.00 in   Overcast
7:53 AM 54.0 °F - 50.0 °F 86% 29.90 in 10.0 mi ESE 10.4 mph - 0.00 in   Overcast
8:53 AM 55.0 °F - 51.1 °F 86% 29.92 in 10.0 mi East 5.8 mph - N/A   Overcast
9:53 AM 57.0 °F - 51.1 °F 81% 29.93 in 10.0 mi SE 9.2 mph - N/A   Overcast
10:13 AM 55.4 °F - 51.8 °F 88% 29.96 in 8.0 mi SE 13.8 mph - N/A   Overcast
10:53 AM 57.0 °F - 52.0 °F 83% 29.94 in 10.0 mi SE 12.7 mph - N/A   Overcast
11:26 AM 55.4 °F - 53.6 °F 94% 29.95 in 3.0 mi SE 16.1 mph - 0.00 in Rain Light Rain
11:30 AM 55.4 °F - 53.6 °F 94% 29.95 in 2.5 mi SE 15.0 mph - 0.00 in Rain Light Rain
11:53 AM 55.9 °F - 53.1 °F 90% 29.93 in 2.5 mi SE 12.7 mph - 0.01 in Rain Light Rain
12:04 PM 55.4 °F - 53.6 °F 94% 29.94 in 3.0 mi SE 12.7 mph - 0.00 in Rain Light Rain
12:11 PM 55.4 °F - 53.6 °F 94% 29.94 in 2.5 mi SE 9.2 mph - 0.00 in Rain Light Rain
12:30 PM 55.4 °F - 53.6 °F 94% 29.94 in 1.8 mi SE 8.1 mph - 0.00 in Rain Light Rain
12:39 PM 55.4 °F - 53.6 °F 94% 29.94 in 2.0 mi SSE 9.2 mph - 0.01 in Rain Light Rain
12:44 PM 55.4 °F - 53.6 °F 94% 29.94 in 1.8 mi South 9.2 mph - 0.01 in Rain Light Rain
12:53 PM 55.9 °F - 54.0 °F 93% 29.92 in 1.2 mi SSE 10.4 mph - 0.02 in Rain Light Rain
1:05 PM 55.4 °F - 53.6 °F 94% 29.93 in 1.5 mi SSE 12.7 mph - 0.01 in Rain Light Rain
1:14 PM 55.4 °F - 53.6 °F 94% 29.93 in 2.0 mi SE 8.1 mph - 0.01 in Rain Light Rain
1:21 PM 55.4 °F - 53.6 °F 94% 29.93 in 2.5 mi SSE 8.1 mph - 0.01 in Rain Light Rain
1:29 PM 55.4 °F - 53.6 °F 94% 29.93 in 3.0 mi SE 6.9 mph - 0.01 in Rain Light Rain
1:32 PM 55.4 °F - 53.6 °F 94% 29.93 in 2.5 mi SE 6.9 mph - 0.01 in Rain Light Rain
1:39 PM 55.4 °F - 53.6 °F 94% 29.93 in 2.0 mi ESE 5.8 mph - 0.02 in Rain Light Rain
1:46 PM 55.4 °F - 53.6 °F 94% 29.93 in 1.5 mi East 5.8 mph - 0.02 in Rain Light Rain
1:53 PM 55.9 °F - 54.0 °F 93% 29.91 in 1.2 mi East 4.6 mph - 0.03 in Rain Light Rain
2:04 PM 55.4 °F - 53.6 °F 94% 29.93 in 1.5 mi Calm Calm - 0.00 in Rain Light Rain
2:38 PM 55.4 °F - 53.6 °F 94% 29.93 in 1.5 mi NNE 8.1 mph - 0.04 in Rain Light Rain
2:53 PM 55.9 °F - 54.0 °F 93% 29.92 in 2.0 mi NNE 10.4 mph - 0.05 in Rain Light Rain
3:03 PM 51.8 °F - 50.0 °F 94% 29.94 in 1.8 mi North 25.3 mph 29.9 mph 0.00 in Rain Light Rain
3:18 PM 50.0 °F - 46.4 °F 87% 29.95 in 3.0 mi North 28.8 mph 34.5 mph 0.01 in   Overcast
3:53 PM 48.0 °F - 45.0 °F 89% 29.96 in 7.0 mi North 29.9 mph 36.8 mph 0.01 in   Overcast
4:25 PM 46.4 °F 37.5 °F 42.8 °F 87% 30.01 in 4.0 mi North 27.6 mph 36.8 mph N/A   Overcast
4:53 PM 46.0 °F 37.2 °F 42.1 °F 86% 30.02 in 3.0 mi North 26.5 mph 38.0 mph N/A   Overcast
5:19 PM 44.6 °F 34.4 °F 41.0 °F 87% 30.05 in 2.5 mi North 32.2 mph 36.8 mph N/A   Overcast
5:24 PM 44.6 °F 34.6 °F 39.2 °F 81% 30.05 in 4.0 mi North 31.1 mph 39.1 mph N/A   Overcast
5:53 PM 44.1 °F 34.2 °F 39.9 °F 85% 30.07 in 9.0 mi North 28.8 mph 36.8 mph N/A   Overcast
6:53 PM 44.1 °F 35.0 °F 39.0 °F 82% 30.09 in 10.0 mi NNE 24.2 mph 32.2 mph N/A   Overcast
7:43 PM 42.8 °F 34.3 °F 39.2 °F 87% 30.13 in 10.0 mi North 19.6 mph 29.9 mph N/A   Overcast
7:53 PM 44.1 °F 36.8 °F 39.0 °F 82% 30.13 in 10.0 mi North 16.1 mph 27.6 mph N/A   Overcast
8:16 PM 44.6 °F 35.9 °F 39.2 °F 81% 30.15 in 10.0 mi North 23.0 mph 28.8 mph N/A   Overcast
8:53 PM 43.0 °F 34.5 °F 37.9 °F 82% 30.17 in 10.0 mi North 19.6 mph - N/A   Overcast
9:01 PM 42.8 °F 35.1 °F 37.4 °F 81% 30.18 in 10.0 mi NNW 16.1 mph - N/A   Overcast
9:23 PM 42.8 °F 33.5 °F 37.4 °F 81% 30.18 in 10.0 mi North 23.0 mph 28.8 mph N/A   Overcast
9:45 PM 42.8 °F 34.3 °F 37.4 °F 81% 30.19 in 10.0 mi North 19.6 mph 28.8 mph N/A   Overcast
9:53 PM 43.0 °F 34.8 °F 37.0 °F 80% 30.19 in 10.0 mi North 18.4 mph 28.8 mph N/A   Overcast
10:53 PM 41.0 °F 33.5 °F 36.0 °F 82% 30.20 in 10.0 mi North 13.8 mph - N/A   Partly Cloudy
11:53 PM 39.0 °F 34.8 °F 36.0 °F 89% 30.20 in 10.0 mi NNW 5.8 mph - N/A   Clear